GW6149 Weather Reports


time (UTC)temp
F
wind
direction
speed
knots
gust
knots
rain 1hr
in
rain 24hr
in
rain mn
in
humidity
%
barometer
mb
20260509112846 50 359 0.0 0.0 0.00 0.00 0.00 93 1011.8
20260509112343 50 83 0.0 0.0 0.00 0.00 0.00 94 1011.7
20260509111840 50 278 0.9 1.7 0.00 0.00 0.00 93 1012.0
20260509111336 50 2 0.9 2.6 0.00 0.00 0.00 93 1011.9
20260509110834 49 178 2.6 2.6 0.00 0.00 0.00 98 1011.7
20260509110330 49 30 0.0 0.0 0.00 0.00 0.00 97 1012.1
20260509105829 49 51 0.0 0.0 0.00 0.00 0.00 98 1012.1
20260509105327 49 27 0.0 0.0 0.00 0.00 0.00 98 1012.2
20260509104823 48 121 0.0 0.0 0.00 0.00 0.00 98 1011.9
20260509104320 48 140 0.0 0.0 0.00 0.00 0.00 98 1012.0
20260509103818 48 78 0.0 0.0 0.00 0.00 0.00 98 1012.0
20260509103314 48 187 0.0 0.0 0.00 0.00 0.00 98 1012.0
20260509102813 48 115 1.7 1.7 0.00 0.00 0.00 98 1011.9
20260509102310 48 108 0.0 0.9 0.00 0.00 0.00 98 1012.0
20260509101806 48 29 0.0 0.0 0.00 0.00 0.00 97 1011.9
20260509101302 48 29 0.0 0.9 0.00 0.00 0.00 97 1011.7
20260509100800 48 28 0.0 0.0 0.00 0.00 0.00 96 1011.8
20260509100257 48 57 0.0 0.0 0.00 0.00 0.00 96 1011.7
20260509095753 48 93 0.9 0.9 0.00 0.00 0.00 96 1011.8
20260509095251 48 76 0.0 0.9 0.00 0.00 0.00 96 1011.7
20260509094748 48 52 0.0 0.9 0.00 0.00 0.00 95 1011.6
20260509094245 49 44 0.0 0.0 0.00 0.00 0.00 95 1011.6
20260509093743 49 318 1.7 2.6 0.00 0.00 0.00 94 1011.8
20260509093240 48 119 3.5 3.5 0.00 0.00 0.00 93 1011.6
20260509092738 48 97 0.0 0.0 0.00 0.00 0.00 95 1011.9
20260509092235 48 101 0.9 1.7 0.00 0.00 0.00 95 1011.8
20260509091733 48 90 0.0 0.0 0.00 0.00 0.00 96 1011.8
20260509091229 48 34 0.0 0.0 0.00 0.00 0.00 96 1011.6
20260509090727 48 89 0.0 0.0 0.00 0.00 0.00 96 1011.4
20260509090224 48 27 0.0 0.9 0.00 0.00 0.00 96 1011.4
20260509085722 48 74 0.0 0.0 0.00 0.00 0.00 96 1011.5
20260509085219 48 111 0.9 1.7 0.00 0.00 0.00 96 1011.4
20260509084715 48 54 0.0 0.0 0.00 0.00 0.00 96 1011.4
20260509084212 48 279 0.9 1.7 0.00 0.00 0.00 96 1011.4
20260509083710 48 231 1.7 2.6 0.00 0.00 0.00 96 1011.6
20260509083207 48 246 0.9 1.7 0.00 0.00 0.00 96 1011.4
20260509082703 48 61 0.0 0.0 0.00 0.00 0.00 95 1011.6
20260509082200 48 12 0.0 0.0 0.00 0.00 0.00 94 1011.5
20260509081657 48 68 0.0 0.0 0.00 0.00 0.00 93 1011.4
20260509081154 48 152 0.0 0.0 0.00 0.00 0.00 93 1011.4
20260509080652 48 104 0.0 0.0 0.00 0.00 0.00 94 1011.6
20260509080150 48 126 0.0 1.7 0.00 0.00 0.00 94 1011.2
20260509075648 48 96 0.9 1.7 0.00 0.00 0.00 94 1011.3
20260509075145 48 93 0.9 0.9 0.00 0.00 0.00 95 1011.3
20260509074642 48 95 0.0 0.0 0.00 0.00 0.00 95 1011.5
20260509074138 48 96 0.0 0.9 0.00 0.00 0.00 95 1011.6
20260509073635 48 78 0.0 0.0 0.00 0.00 0.00 94 1011.5
20260509073131 48 40 0.0 0.0 0.00 0.00 0.00 94 1011.5
20260509072628 49 10 0.0 0.0 0.00 0.00 0.00 94 1011.5
20260509072125 48 115 0.0 0.0 0.00 0.00 0.00 95 1011.4
20260509071622 48 115 0.0 0.0 0.00 0.00 0.00 95 1011.6
20260509071119 48 116 0.0 0.0 0.00 0.00 0.00 95 1011.6
20260509070616 48 108 0.0 0.0 0.00 0.00 0.00 95 1011.7
20260509070112 48 125 1.7 1.7 0.00 0.00 0.00 95 1011.7
20260509065608 48 110 0.0 0.9 0.00 0.00 0.00 94 1011.9
20260509065104 49 112 0.0 0.9 0.00 0.00 0.00 94 1012.1
20260509064602 49 288 1.7 1.7 0.00 0.00 0.00 93 1012.1
20260509064100 49 87 0.0 0.0 0.00 0.00 0.00 92 1012.0
20260509063555 49 87 0.9 1.7 0.00 0.00 0.00 92 1012.0
20260509063053 49 83 0.9 1.7 0.00 0.00 0.00 93 1012.0
20260509062550 49 0 0.0 0.0 0.00 0.00 0.00 93 1012.5
20260509062047 49 63 0.0 0.9 0.00 0.00 0.00 93 1012.5
20260509061544 49 151 1.7 1.7 0.00 0.00 0.00 93 1012.5
20260509061041 49 75 0.0 0.0 0.00 0.00 0.00 92 1012.3
20260509060539 49 74 0.9 1.7 0.00 0.00 0.00 93 1012.5
20260509060034 49 76 2.6 2.6 0.00 0.00 0.00 93 1012.5
20260509055530 49 119 0.0 0.0 0.00 0.00 0.00 94 1012.8
20260509055026 49 124 0.0 0.0 0.00 0.00 0.00 94 1013.0
20260509054523 49 117 0.0 0.9 0.00 0.00 0.00 93 1012.8
20260509054021 49 114 0.0 0.9 0.00 0.00 0.00 93 1012.9
20260509053519 49 102 0.0 0.0 0.00 0.00 0.00 93 1013.0
20260509053016 49 127 0.9 1.7 0.00 0.00 0.00 92 1012.8
20260509052514 49 26 0.0 0.0 0.00 0.00 0.00 92 1013.1
20260509052012 49 29 0.0 0.0 0.00 0.00 0.00 91 1013.2
20260509051509 49 308 0.9 1.7 0.00 0.00 0.00 91 1013.2
20260509051006 49 94 0.0 0.0 0.00 0.00 0.00 90 1013.3
20260509050502 50 156 1.7 1.7 0.00 0.00 0.00 88 1013.2
20260509045959 49 99 0.0 0.9 0.00 0.00 0.00 86 1013.5
20260509045456 49 119 0.9 0.9 0.00 0.00 0.00 90 1013.5
20260509044953 49 106 1.7 2.6 0.00 0.00 0.00 89 1013.4
20260509044451 49 122 1.7 2.6 0.00 0.00 0.00 89 1013.5
20260509043948 49 73 0.0 0.0 0.00 0.00 0.00 88 1013.4
20260509043444 50 113 1.7 1.7 0.00 0.00 0.00 89 1013.6
20260509042939 50 97 0.0 0.0 0.00 0.00 0.00 88 1013.8
20260509042437 50 245 0.0 0.0 0.00 0.00 0.00 86 1013.6
20260509041933 50 245 0.0 0.0 0.00 0.00 0.00 86 1013.7
20260509041430 51 246 0.0 0.0 0.00 0.00 0.00 86 1013.7
20260509040928 51 243 0.9 0.9 0.00 0.00 0.00 85 1013.6
20260509040426 51 100 0.0 0.9 0.00 0.00 0.00 80 1013.4
20260509035922 51 73 0.9 1.7 0.00 0.00 0.00 80 1013.4
20260509035419 51 88 0.9 1.7 0.00 0.00 0.00 81 1013.6
20260509034915 51 115 1.7 1.7 0.00 0.00 0.00 84 1013.6
20260509034414 51 88 0.0 0.0 0.00 0.00 0.00 83 1013.4
20260509033910 51 88 0.0 0.9 0.00 0.00 0.00 84 1013.4
20260509033407 51 81 0.0 1.7 0.00 0.00 0.00 84 1013.3
20260509032904 50 80 0.9 1.7 0.00 0.00 0.00 84 1013.3
20260509032401 50 102 1.7 1.7 0.00 0.00 0.00 86 1013.0
20260509031859 50 92 0.9 1.7 0.00 0.00 0.00 88 1013.3
20260509031356 50 48 0.0 0.0 0.00 0.00 0.00 88 1013.3
20260509030854 50 82 0.0 0.0 0.00 0.00 0.00 88 1013.3
20260509030351 50 87 0.9 1.7 0.00 0.00 0.00 87 1013.2
20260509025848 50 119 3.5 5.2 0.00 0.00 0.00 88 1013.0
20260509025343 50 81 0.0 0.9 0.00 0.00 0.00 87 1013.2
20260509024839 50 23 0.9 1.7 0.00 0.00 0.00 87 1013.1
20260509024335 50 72 0.0 0.0 0.00 0.00 0.00 87 1013.1
20260509023833 50 104 0.0 0.0 0.00 0.00 0.00 86 1013.1
20260509023330 50 158 1.7 1.7 0.00 0.00 0.00 86 1012.8
20260509022827 50 230 0.0 1.7 0.00 0.00 0.00 85 1013.2
20260509022324 50 14 0.0 0.0 0.00 0.00 0.00 85 1013.2
20260509021820 50 100 0.0 0.0 0.00 0.00 0.00 85 1013.1
20260509021318 51 116 0.9 0.9 0.00 0.00 0.00 84 1013.1
20260509020815 51 110 0.0 0.9 0.00 0.00 0.00 84 1013.3
20260509020313 51 98 0.0 0.0 0.00 0.00 0.00 81 1013.4
20260509015811 51 267 1.7 2.6 0.00 0.00 0.00 81 1013.5
20260509015309 51 147 0.0 1.7 0.00 0.00 0.00 79 1013.4
20260509014805 52 126 0.9 1.7 0.00 0.00 0.00 80 1013.4
20260509014302 52 127 1.7 2.6 0.00 0.00 0.00 77 1013.2
20260509013758 51 114 2.6 2.6 0.00 0.00 0.00 77 1013.3
20260509013254 51 105 1.7 1.7 0.00 0.00 0.00 77 1013.4
20260509012751 52 88 0.0 0.9 0.00 0.00 0.00 77 1013.2
20260509012248 52 89 0.9 0.9 0.00 0.00 0.00 74 1013.4
20260509011745 51 91 0.9 1.7 0.00 0.00 0.00 75 1013.3
20260509011242 51 91 1.7 2.6 0.00 0.00 0.00 77 1013.2
20260509010740 51 64 0.0 0.0 0.00 0.00 0.00 77 1013.2
20260509010237 52 57 0.0 0.0 0.00 0.00 0.00 76 1012.9
20260509005735 52 20 0.9 1.7 0.00 0.00 0.00 75 1012.9
20260509005232 53 119 1.7 2.6 0.00 0.00 0.00 72 1012.8
20260509004731 52 103 0.0 0.0 0.00 0.00 0.00 73 1012.7
20260509004229 53 96 0.0 0.0 0.00 0.00 0.00 74 1012.7
20260509003727 54 86 0.0 0.0 0.00 0.00 0.00 71 1012.8
20260509003224 55 112 0.0 0.0 0.00 0.00 0.00 66 1012.8
20260509002721 56 47 0.0 0.0 0.00 0.00 0.00 64 1012.6
20260509002219 57 242 2.6 3.5 0.00 0.00 0.00 62 1012.7
20260509001717 57 44 0.0 0.0 0.00 0.00 0.00 61 1012.6
20260509001212 57 247 1.7 2.6 0.00 0.00 0.00 61 1012.8
20260509000711 57 148 0.0 0.0 0.00 0.00 0.00 62 1012.8
20260509000207 57 338 0.0 0.0 0.00 0.00 0.00 61 1012.9
20260508235704 57 132 0.9 6.1 0.00 0.00 0.00 61 1012.8
20260508235201 57 215 0.9 1.7 0.00 0.00 0.00 61 1012.8
20260508234658 57 64 0.0 2.6 0.00 0.00 0.00 61 1012.7
20260508234154 57 237 2.6 2.6 0.00 0.00 0.00 61 1012.7
20260508233654 57 285 4.3 7.8 0.00 0.00 0.00 60 1012.8
20260508233151 57 264 1.7 5.2 0.00 0.00 0.00 60 1012.7
20260508232648 57 325 3.5 5.2 0.00 0.00 0.00 61 1012.6
20260508232145 58 123 0.0 5.2 0.00 0.00 0.00 59 1013.0
20260508231643 58 242 5.2 6.1 0.00 0.00 0.00 59 1012.7
20260508231139 58 23 2.6 5.2 0.00 0.00 0.00 59 1012.7
20260508230636 58 266 3.5 7.8 0.00 0.00 0.00 59 1012.5
20260508230133 58 270 6.1 7.8 0.00 0.00 0.00 58 1012.5
20260508225631 58 302 4.3 6.1 0.00 0.00 0.00 58 1012.3
20260508225126 58 237 7.8 9.6 0.00 0.00 0.00 58 1012.5
20260508224624 58 231 3.5 5.2 0.00 0.00 0.00 59 1012.2
20260508224122 58 269 3.5 9.6 0.00 0.00 0.00 58 1012.3
20260508223619 58 236 10.4 12.2 0.00 0.00 0.00 58 1012.6
20260508223116 58 239 7.0 9.6 0.00 0.00 0.00 58 1012.5
20260508222613 58 250 8.7 11.3 0.00 0.00 0.00 59 1012.5
20260508222110 58 258 7.8 11.3 0.00 0.00 0.00 59 1012.6
20260508221607 58 252 7.0 9.6 0.00 0.00 0.00 60 1012.6
20260508221103 58 244 8.7 11.3 0.00 0.00 0.00 60 1012.8
20260508220559 58 247 7.0 12.2 0.00 0.00 0.00 60 1012.9
20260508220055 58 252 6.1 11.3 0.00 0.00 0.00 60 1012.8
20260508215553 58 247 7.0 9.6 0.00 0.00 0.00 59 1012.8
20260508215049 58 294 10.4 13.9 0.00 0.00 0.00 58 1012.8
20260508214547 58 246 10.4 13.0 0.00 0.00 0.00 59 1012.7
20260508214043 58 235 12.2 21.7 0.00 0.00 0.00 57 1012.6
20260508213541 58 254 9.6 15.6 0.00 0.00 0.00 57 1012.9
20260508213036 59 252 13.0 18.2 0.00 0.00 0.00 58 1012.7
20260508212533 59 235 13.0 18.2 0.00 0.00 0.00 56 1012.7
20260508212029 59 245 10.4 16.5 0.00 0.00 0.00 56 1012.3
20260508211525 59 237 7.8 11.3 0.00 0.00 0.00 58 1012.5
20260508211022 59 246 5.2 14.8 0.00 0.00 0.00 58 1012.2
20260508210518 59 239 10.4 19.1 0.00 0.00 0.00 58 1012.5
20260508210016 59 203 6.1 9.6 0.00 0.00 0.00 59 1012.6
20260508205513 59 249 7.0 9.6 0.00 0.00 0.00 59 1012.7
20260508205009 59 239 7.0 8.7 0.00 0.00 0.00 60 1012.5
20260508204506 59 236 5.2 7.8 0.00 0.00 0.00 58 1012.5
20260508204001 59 231 10.4 12.2 0.00 0.00 0.00 59 1012.5
20260508203457 59 236 12.2 14.8 0.00 0.00 0.00 58 1012.5
20260508202953 59 251 8.7 12.2 0.00 0.00 0.00 58 1012.7
20260508202451 59 282 6.1 9.6 0.00 0.00 0.00 58 1012.6
20260508201948 59 250 9.6 11.3 0.00 0.00 0.00 58 1012.9
20260508201444 59 243 3.5 13.0 0.00 0.00 0.00 57 1012.7
20260508200941 59 274 10.4 13.0 0.00 0.00 0.00 58 1012.8
20260508200439 59 253 15.6 19.1 0.00 0.00 0.00 57 1012.8
20260508195938 58 242 7.8 18.2 0.00 0.00 0.00 58 1012.9
20260508195436 58 245 13.9 16.5 0.00 0.00 0.00 58 1013.3
20260508194932 59 244 11.3 15.6 0.00 0.00 0.00 59 1013.1
20260508194429 60 221 8.7 13.0 0.00 0.00 0.00 53 1013.0
20260508193926 61 232 9.6 11.3 0.00 0.00 0.00 51 1012.7
20260508193423 61 236 7.0 7.8 0.00 0.00 0.00 50 1012.5
20260508192919 61 2 3.5 11.3 0.00 0.00 0.00 49 1012.5
20260508192416 61 302 8.7 20.0 0.00 0.00 0.00 50 1012.3
20260508191913 61 279 8.7 9.6 0.00 0.00 0.00 50 1012.5
20260508191411 61 238 7.0 12.2 0.00 0.00 0.00 50 1012.6
20260508190908 61 252 9.6 20.9 0.00 0.00 0.00 49 1012.8
20260508190404 61 233 6.1 9.6 0.00 0.00 0.00 50 1012.9
20260508185900 61 228 13.9 15.6 0.00 0.00 0.00 49 1012.6
20260508185358 61 238 14.8 16.5 0.00 0.00 0.00 48 1012.7
20260508184855 61 252 12.2 19.1 0.00 0.00 0.00 48 1012.8
20260508184353 62 246 9.6 16.5 0.00 0.00 0.00 46 1012.5
20260508183849 61 262 9.6 13.0 0.00 0.00 0.00 46 1012.8
20260508183346 61 249 9.6 20.0 0.00 0.00 0.00 46 1012.8
20260508182842 61 258 8.7 12.2 0.00 0.00 0.00 46 1012.7
20260508182339 62 231 9.6 12.2 0.00 0.00 0.00 45 1012.5
20260508181834 62 251 8.7 13.9 0.00 0.00 0.00 45 1012.5
20260508181331 63 245 9.6 13.9 0.00 0.00 0.00 44 1012.5
20260508180828 63 282 5.2 14.8 0.00 0.00 0.00 44 1012.5
20260508180325 62 288 7.8 9.6 0.00 0.00 0.00 44 1012.7
20260508175821 62 278 4.3 8.7 0.00 0.00 0.00 44 1013.1
20260508175318 62 295 2.6 7.0 0.00 0.00 0.00 45 1013.0
20260508174816 63 239 13.0 14.8 0.00 0.00 0.00 44 1013.2
20260508174313 62 232 9.6 12.2 0.00 0.00 0.00 46 1013.2
20260508173809 62 230 7.8 13.0 0.00 0.00 0.00 46 1013.3
20260508173306 62 224 5.2 12.2 0.00 0.00 0.00 43 1013.3
20260508172802 62 229 3.5 6.1 0.00 0.00 0.00 45 1013.3
20260508172300 60 317 11.3 16.5 0.00 0.00 0.00 47 1013.3
20260508171755 60 252 13.0 16.5 0.00 0.00 0.00 48 1013.4
20260508171252 60 252 9.6 18.2 0.00 0.00 0.00 47 1013.3
20260508170749 61 264 6.1 8.7 0.00 0.00 0.00 45 1013.3
20260508170247 61 280 5.2 16.5 0.00 0.00 0.00 46 1013.5
20260508165744 62 237 5.2 9.6 0.00 0.00 0.00 46 1013.5
20260508165241 61 253 14.8 15.6 0.00 0.00 0.00 46 1013.9
20260508164737 62 234 6.1 8.7 0.00 0.00 0.00 49 1013.7
20260508164234 62 248 8.7 13.0 0.00 0.00 0.00 48 1013.4
20260508163732 61 254 13.0 13.9 0.00 0.00 0.00 49 1013.6
20260508163229 60 237 9.6 14.8 0.00 0.00 0.00 49 1013.8
20260508162725 61 257 10.4 14.8 0.00 0.00 0.00 48 1013.9
20260508162222 61 252 6.1 15.6 0.00 0.00 0.00 48 1013.9
20260508161719 61 297 10.4 13.0 0.00 0.00 0.00 47 1013.8
20260508161216 60 281 7.0 23.5 0.00 0.00 0.00 50 1013.8
20260508160714 60 250 5.2 13.0 0.00 0.00 0.00 49 1014.2
20260508160212 60 248 11.3 16.5 0.00 0.00 0.00 48 1014.2
20260508155708 60 256 4.3 7.8 0.00 0.00 0.00 48 1014.2
20260508155205 60 240 5.2 14.8 0.00 0.00 0.00 50 1014.3
20260508154702 60 274 6.1 18.2 0.00 0.00 0.00 49 1014.0
20260508154159 60 238 11.3 14.8 0.00 0.00 0.00 49 1014.1
20260508153656 60 234 12.2 13.9 0.00 0.00 0.00 50 1014.0
20260508153153 60 245 10.4 15.6 0.00 0.00 0.00 50 1014.3
20260508152649 59 313 6.1 12.2 0.00 0.00 0.00 50 1014.3
20260508152145 59 276 7.0 12.2 0.00 0.00 0.00 49 1014.2
20260508151642 59 288 7.8 15.6 0.00 0.00 0.00 49 1014.1
20260508151138 58 298 4.3 13.0 0.00 0.00 0.00 50 1014.2
20260508150636 59 258 13.0 18.2 0.00 0.00 0.00 51 1014.2
20260508150132 58 284 6.1 18.2 0.00 0.00 0.00 51 1014.3
20260508145628 57 259 9.6 13.9 0.00 0.00 0.00 53 1014.2
20260508145124 57 216 9.6 16.5 0.00 0.00 0.00 51 1014.0
20260508144623 57 227 15.6 18.2 0.00 0.00 0.00 52 1014.2
20260508144120 56 237 6.1 12.2 0.00 0.00 0.00 51 1014.2
20260508143617 56 235 6.1 13.9 0.00 0.00 0.00 52 1014.2
20260508143114 56 259 7.8 12.2 0.00 0.00 0.00 54 1014.3
20260508142610 56 272 7.8 13.9 0.00 0.00 0.00 53 1014.4
20260508142107 56 245 8.7 13.9 0.00 0.00 0.00 52 1014.4
20260508141604 56 270 13.0 19.1 0.00 0.00 0.00 53 1014.4
20260508141101 56 272 5.2 13.0 0.00 0.00 0.00 54 1014.4
20260508140558 55 246 8.7 9.6 0.00 0.00 0.00 53 1014.5
20260508140055 56 243 10.4 15.6 0.00 0.00 0.00 54 1014.4
20260508135550 57 248 1.7 13.0 0.00 0.00 0.00 52 1014.4
20260508135047 56 285 7.0 13.9 0.00 0.00 0.00 53 1014.4
20260508134544 55 233 5.2 11.3 0.00 0.00 0.00 55 1014.4
20260508134041 55 217 9.6 16.5 0.00 0.00 0.00 53 1014.5
20260508133537 55 255 5.2 15.6 0.00 0.00 0.00 53 1014.4
20260508133035 55 239 6.1 12.2 0.00 0.00 0.00 56 1014.4
20260508132533 54 242 10.4 13.0 0.00 0.00 0.00 56 1014.4
20260508132029 54 250 7.0 12.2 0.00 0.00 0.00 56 1014.4
20260508131524 54 222 3.5 7.0 0.00 0.00 0.00 57 1014.4
20260508131021 54 110 1.7 6.1 0.00 0.00 0.00 59 1014.6
20260508130519 54 248 1.7 7.0 0.00 0.00 0.00 58 1014.5
20260508130015 53 277 0.9 3.5 0.00 0.00 0.00 59 1014.6
20260508125510 53 262 2.6 6.1 0.00 0.00 0.00 60 1014.8
20260508125008 52 133 3.5 7.0 0.00 0.00 0.00 57 1014.6
20260508124506 52 52 0.9 3.5 0.00 0.00 0.00 57 1014.7
20260508124003 52 124 2.6 3.5 0.00 0.00 0.00 58 1014.6
20260508123502 51 39 1.7 3.5 0.00 0.00 0.00 59 1014.7
20260508122958 50 217 3.5 5.2 0.00 0.00 0.00 59 1014.8
20260508122455 49 218 3.5 5.2 0.00 0.00 0.00 64 1014.6
20260508121952 48 237 1.7 2.6 0.00 0.00 0.00 69 1014.9
20260508121450 46 93 0.0 1.7 0.00 0.00 0.00 75 1014.7
20260508120948 44 31 0.0 0.0 0.00 0.00 0.00 82 1015.0
20260508120445 44 28 0.0 0.0 0.00 0.00 0.00 82 1015.0
20260508115943 44 28 0.0 0.0 0.00 0.00 0.00 80 1014.8
20260508115440 44 31 0.0 0.0 0.00 0.00 0.00 81 1014.8
20260508114936 43 30 0.0 0.0 0.00 0.00 0.00 82 1014.8
20260508114434 42 30 0.0 0.0 0.00 0.00 0.00 81 1014.9
20260508113930 42 31 0.0 0.0 0.00 0.00 0.00 82 1014.9
20260508113428 41 31 0.0 0.0 0.00 0.00 0.00 82 1015.0
20260508112925 41 358 0.0 0.9 0.00 0.00 0.00 83 1014.8